Location: Napa Soda Springs
(38.3907°N, 122.2794°W)
Time: 07:12:00
(UTC+00:00)

Cosmos 2228 - Pass Details

Date: 29 October 2020
Orbit: 590 x 617 km, 82.5° (Epoch: 03 December)

Event Time Altitude Azimuth Distance (km) Brightness Sun altitude
Rises 12:56:55 0° 347° (NNW) 2,883 6.3 -19.3°
Reaches altitude 10° 12:59:11 10° 343° (NNW) 1,977 5.4 -18.9°
Maximum altitude 13:03:27 55° 266° (W) 744 3.1 -18.1°
Drops below altitude 10° 13:07:43 10° 189° (S) 1,972 5.6 -17.2°
Sets 13:09:58 0° 185° (S) 2,873 6.5 -16.8°
